Location: Curicchi
(45.0167°N, 12.0500°E)
Time: 18:31:33
(UTC+00:00)

Landsat 5 - Pass Details

Date: 07 June 2020
Orbit: 528 x 655 km, 98.2° (Epoch: 06 July)

Event Time Altitude Azimuth Distance (km) Brightness Sun altitude
Rises 02:40:09 0° 169° (S) 2,966 6.7 -7.1°
Reaches altitude 10° 02:42:23 10° 171° (S) 2,057 5.9 -6.8°
Maximum altitude 02:46:53 74° 257° (WSW) 677 3.6 -6.2°
Drops below altitude 10° 02:51:20 10° 343° (NNW) 2,036 6.5 -5.6°
Sets 02:53:32 0° 345° (NNW) 2,933 7.4 -5.4°
